[[{"header":{"parameterUnit":"m.s-1","parameterCategory":1,"la1":30.2991,"la2":30.254,"lo1":-89.0895,"lo2":-89.0444,"dy":0.0017,"dx":0.0017,"nx":28,"ny":28,"refTime":"2023-07-26T03:00:00:Z","depth":0,"parameterNumber":2,"parameterNumberName":"U-component_of_WINDS"},"data":[0,0,0,0,0,0,0,0,0,0,0,0,0,0,0,0,0,0,0,0,0,0,0,0,0,0,0,0,0,0,0,0,0,0,0,0,0,0,0,0,0,0,0,0,0,0,0,0,0,0,0,0,0,0,0,0,0,0,0.7951,0.7952,0,0.8064,0.8065,0.8067,0.812,0.812,0.812,0.812,0.8236,0.8239,0.8242,0,0,0,0,0,0,0,0,0,0,0,0,0,0.778,0.7783,0.7951,0.7952,0.7954,0.8064,0.8065,0.8067,0.812,0.812,0.812,0.812,0.8235,0.8239,0.8242,0,0,0,0,0,0,0,0,0,0,0,0,0,0.787,0.7784,0.7951,0.7994,0.7999,0.8064,0.8065,0.8067,0.812,0.812,0.812,0.812,0.8234,0.8238,0.8243,0.8273,0,0,0.8257,0.8259,0,0,0,0,0,0,0,0,0.7865,0.7876,0.7986,0.7991,0.7997,0.8078,0.8048,0.8136,0.812,0.8074,0.812,0.812,0.8183,0.8192,0.8214,0.8279,0.8284,0.8258,0.826,0.8262,0.8264,0,0,0,0,0,0,0,0.7859,0.7872,0.7996,0.7987,0.7994,0.8007,0.802,0.8065,0.8128,0.8078,0.8082,0.8095,0.8186,0.8209,0.8217,0.8286,0.8257,0.8262,0.8265,0.8266,0.8381,0.8381,0,0,0,0,0,0,0.7845,0.7866,0.7992,0.7999,0.7929,0.801,0.8024,0.8052,0.8128,0.8139,0.8095,0.8097,0.8201,0.8211,0.8221,0.8262,0.8262,0.8267,0.827,0.8381,0.8381,0.8382,0,0,0,0,0,0,0.7842,0.7856,0.7988,0.7934,0.7952,0.8013,0.8044,0.8054,0.8077,0.814,0.8152,0.8107,0.8201,0.8214,0.826,0.8267,0.8269,0.8273,0.8381,0.8381,0.8381,0.8344,0,0,0,0,0,0,0.7836,0.7854,0.7867,0.7934,0.7954,0.8025,0.8044,0.8056,0.8085,0.8089,0.8154,0.8165,0.8202,0.8253,0.8265,0.8273,0.8277,0.838,0.8381,0.8381,0.8344,0.8343,0.8341,0,0,0,0,0,0.783,0.7852,0.7867,0.7882,0.7971,0.8025,0.8037,0.8079,0.8085,0.8098,0.8139,0.8163,0.8264,0.8257,0.8271,0.8281,0.838,0.8381,0.8381,0.8345,0.8343,0.8341,0,0,0,0,0,0,0.7785,0.7861,0.788,0.7924,0.7967,0.8034,0.8052,0.8075,0.8118,0.812,0.8171,0.8185,0.8226,0.8258,0.8249,0.8314,0.8324,0.8327,0.8292,0.829,0.8289,0.828,0.8281,0,0,0,0,0,0.7779,0.7817,0.7882,0.7915,0.7936,0.799,0.8015,0.8044,0.8091,0.811,0.8154,0.8199,0.8241,0.8267,0.8309,0.8349,0.8364,0.8363,0.8361,0.8359,0.8362,0.8385,0.8385,0.8383,0.8383,0.8383,0,0,0.777,0.7816,0.7837,0.7907,0.7944,0.7981,0.8005,0.8044,0.8072,0.8116,0.8162,0.8195,0.8249,0.8291,0.8312,0.8319,0.8365,0.836,0.8358,0.8361,0.8385,0.8385,0.8385,0.8384,0.8384,0.8383,0,0,0.7771,0.781,0.7841,0.7878,0.7934,0.797,0.7977,0.804,0.8064,0.8111,0.8144,0.8178,0.825,0.8286,0.8314,0.8328,0.8352,0.834,0.8331,0.8353,0.8353,0.8354,0.8359,0.836,0.8342,0.8342,0.8342,0,0.7752,0.781,0.7854,0.7891,0.7921,0.7962,0.7994,0.8027,0.8094,0.8113,0.812,0.8209,0.8248,0.83,0.8303,0.8324,0.8334,0.8334,0.835,0.8351,0.8352,0.8357,0.8359,0.8341,0.8341,0.8341,0.8341,0,0.7783,0.7823,0.7841,0.7905,0.7936,0.797,0.802,0.8046,0.8072,0.8107,0.8153,0.8201,0.8253,0.8268,0.8293,0.8323,0.8325,0.834,0.8351,0.8349,0.8355,0.8358,0.8338,0.8339,0.8339,0.834,0,0,0.776,0.7847,0.7853,0.7882,0.7947,0.7978,0.8014,0.8065,0.8086,0.8131,0.8162,0.822,0.8234,0.8266,0.8296,0.8315,0.8323,0.8328,0.8329,0.8325,0.8358,0.8347,0.8349,0.8339,0.8339,0.834,0.8354,0,0.7771,0.7837,0.7878,0.7927,0.7964,0.8003,0.8034,0.8076,0.8109,0.8145,0.8182,0.8223,0.8238,0.8257,0.8278,0.8317,0.833,0.8317,0.8368,0.8369,0.8354,0.8352,0.8341,0.8352,0.8356,0.8357,0.8357,0,0.7792,0.7836,0.7889,0.7949,0.7966,0.7993,0.8043,0.8076,0.8125,0.8148,0.8182,0.8212,0.8251,0.8258,0.8312,0.8302,0.8326,0.8348,0.835,0.8356,0.8363,0.8359,0.8356,0.8358,0.8361,0.8361,0.8361,0,0.777,0.7842,0.7883,0.7906,0.7977,0.7995,0.8026,0.8074,0.8102,0.8145,0.8164,0.8211,0.8237,0.8272,0.8314,0.8316,0.8364,0.8375,0.8384,0.8383,0.8393,0.8392,0.8394,0.8407,0.8407,0.8407,0.8407,0,0.7778,0.7809,0.7874,0.7899,0.7935,0.7981,0.8015,0.8048,0.8091,0.8123,0.8159,0.8188,0.8242,0.8277,0.831,0.835,0.8361,0.8381,0.8389,0.8378,0.8375,0.8394,0.8395,0.8407,0.8407,0.8407,0.8407,0,0.776,0.7805,0.7852,0.7915,0.7931,0.7955,0.8008,0.8034,0.8069,0.8109,0.8121,0.8175,0.8219,0.8264,0.8323,0.8345,0.8384,0.8396,0.8368,0.8372,0.8379,0.8378,0.8394,0.8399,0.8407,0.8407,0.8407,0,0.7762,0.7787,0.7853,0.7877,0.7906,0.7945,0.7973,0.8019,0.8047,0.8104,0.8123,0.8169,0.8209,0.8277,0.8322,0.8367,0.838,0.8383,0.8387,0.8375,0.8381,0.8379,0.8381,0.8381,0.8381,0.838,0.838,0,0.7762,0.7783,0.7823,0.787,0.7903,0.7942,0.7983,0.8,0.8054,0.8084,0.8129,0.8159,0.822,0.8265,0.8316,0.8347,0.8373,0.8378,0.8383,0.8372,0.8355,0.8364,0.8363,0.8378,0.8378,0.8378,0.8378,0.8379,0.7755,0.7778,0.7828,0.7871,0.7906,0.7943,0.797,0.8008,0.8047,0.8099,0.8124,0.8169,0.8217,0.8287,0.8317,0.8353,0.836,0.8367,0.8369,0.837,0.8367,0.8348,0.8363,0.8363,0.8363,0.8363,0.8363,0,0.7756,0.779,0.7829,0.7885,0.7918,0.7939,0.7985,0.8011,0.8051,0.8093,0.8131,0.8183,0.8227,0.8274,0.8321,0.8341,0.8354,0.8352,0.8351,0.8358,0.8358,0.8349,0.8341,0.8341,0.8341,0.8341,0.8341,0.8341,0.7761,0.7803,0.7829,0.7887,0.7921,0.7965,0.799,0.8024,0.8058,0.8114,0.8151,0.8181,0.8226,0.8276,0.8317,0.833,0.8346,0.834,0.8357,0.8356,0.8358,0.8359,0.8352,0.8343,0.8343,0.8354,0.8354,0.8354]},{"header":{"parameterUnit":"m.s-1","parameterCategory":1,"la1":30.2991,"la2":30.254,"lo1":-89.0895,"lo2":-89.0444,"dy":0.0017,"dx":0.0017,"nx":28,"ny":28,"refTime":"2023-07-26T03:00:00:Z","depth":0,"parameterNumber":3,"parameterNumberName":"V-component_of_WINDS"},"data":[0,0,0,0,0,0,0,0,0,0,0,0,0,0,0,0,0,0,0,0,0,0,0,0,0,0,0,0,0,0,0,0,0,0,0,0,0,0,0,0,0,0,0,0,0,0,0,0,0,0,0,0,0,0,0,0,0,0,2.981,2.9809,0,2.9725,2.9724,2.9723,2.9683,2.9683,2.9683,2.9683,2.9588,2.9586,2.9583,0,0,0,0,0,0,0,0,0,0,0,0,0,2.9932,2.993,2.981,2.9809,2.9808,2.9725,2.9724,2.9723,2.9683,2.9683,2.9683,2.9683,2.9589,2.9586,2.9583,0,0,0,0,0,0,0,0,0,0,0,0,0,2.9866,2.993,2.9811,2.9779,2.9775,2.9725,2.9724,2.9722,2.9683,2.9683,2.9683,2.9683,2.959,2.9586,2.9583,2.9556,0,0,2.9571,2.9569,0,0,0,0,0,0,0,0,2.987,2.9862,2.9784,2.9781,2.9776,2.9715,2.9732,2.9666,2.9683,2.9718,2.9683,2.9683,2.963,2.9623,2.9606,2.9552,2.9548,2.957,2.9568,2.9566,2.9565,0,0,0,0,0,0,0,2.9875,2.9865,2.9776,2.9783,2.9778,2.9766,2.9757,2.9719,2.9674,2.9715,2.9711,2.9702,2.9628,2.961,2.9604,2.9546,2.957,2.9567,2.9565,2.9563,2.9466,2.9466,0,0,0,0,0,0,2.9886,2.9869,2.9779,2.9774,2.9825,2.9764,2.9754,2.9734,2.9674,2.9665,2.9702,2.9701,2.9617,2.9608,2.96,2.9565,2.9566,2.9563,2.956,2.9466,2.9466,2.9465,0,0,0,0,0,0,2.9888,2.9878,2.9782,2.9821,2.9808,2.9762,2.974,2.9733,2.9715,2.9665,2.9656,2.9693,2.9616,2.9606,2.9568,2.9562,2.9561,2.9557,2.9466,2.9466,2.9466,2.9496,0,0,0,0,0,0,2.9892,2.9879,2.987,2.9821,2.9806,2.9754,2.974,2.9731,2.9709,2.9706,2.9654,2.9645,2.9616,2.9574,2.9564,2.9556,2.9554,2.9467,2.9466,2.9466,2.9495,2.9497,2.9498,0,0,0,0,0,2.9897,2.988,2.987,2.9859,2.9794,2.9753,2.9745,2.9713,2.9709,2.9698,2.9667,2.9647,2.9564,2.9571,2.9559,2.955,2.9467,2.9466,2.9466,2.9495,2.9496,2.9498,0,0,0,0,0,0,2.9927,2.9873,2.9861,2.9829,2.9797,2.9747,2.9733,2.9716,2.9681,2.968,2.964,2.9628,2.9594,2.9568,2.9576,2.9521,2.9514,2.9511,2.9539,2.9541,2.9542,2.9548,2.9551,0,0,0,0,0,2.9931,2.9905,2.9858,2.9834,2.9819,2.9779,2.976,2.9739,2.9702,2.9687,2.9652,2.9616,2.9582,2.956,2.9525,2.9491,2.9479,2.9479,2.9481,2.9482,2.948,2.946,2.9459,2.9464,2.9464,2.9464,0,0,2.9936,2.9904,2.9889,2.9839,2.9812,2.9784,2.9767,2.9738,2.9716,2.9682,2.9645,2.9618,2.9575,2.9539,2.9522,2.9516,2.9476,2.9481,2.9483,2.9479,2.9459,2.9459,2.9458,2.9463,2.9463,2.9463,0,0,2.9933,2.9906,2.9884,2.9857,2.9816,2.979,2.9785,2.9738,2.972,2.9683,2.9657,2.9629,2.9571,2.9541,2.9518,2.9505,2.9486,2.9495,2.9501,2.9482,2.9482,2.9481,2.9476,2.9475,2.9493,2.9493,2.9493,0,2.9945,2.9904,2.9873,2.9846,2.9825,2.9796,2.9771,2.9746,2.9695,2.968,2.9675,2.9603,2.9571,2.9528,2.9525,2.9508,2.9499,2.95,2.9485,2.9484,2.9483,2.9477,2.9476,2.9494,2.9494,2.9494,2.9494,0,2.992,2.9892,2.9878,2.9833,2.981,2.9784,2.9748,2.9728,2.9709,2.9683,2.9645,2.9606,2.9564,2.9552,2.9532,2.9506,2.9504,2.9493,2.9484,2.9484,2.9479,2.9476,2.9496,2.9496,2.9495,2.9495,0,0,2.9932,2.9873,2.9868,2.9847,2.9801,2.9777,2.975,2.9711,2.9694,2.966,2.9635,2.9587,2.9577,2.9551,2.9527,2.9511,2.9503,2.9501,2.9499,2.9502,2.9471,2.948,2.9478,2.949,2.9489,2.9489,2.9475,0,2.9922,2.9875,2.9847,2.981,2.9783,2.9755,2.9731,2.9699,2.9674,2.9646,2.9617,2.9584,2.9573,2.9557,2.954,2.9508,2.9496,2.9508,2.9464,2.9463,2.9476,2.9475,2.9484,2.9472,2.9472,2.9472,2.9472,0,2.9904,2.9874,2.9835,2.9792,2.978,2.9759,2.9721,2.9696,2.9658,2.9641,2.9613,2.959,2.9558,2.9553,2.9508,2.9517,2.9497,2.9479,2.9478,2.9472,2.9467,2.9468,2.9468,2.9466,2.9468,2.9468,2.9468,0,2.9917,2.9866,2.9836,2.9819,2.9769,2.9755,2.9733,2.9696,2.9674,2.964,2.9626,2.9588,2.9567,2.9538,2.9504,2.9504,2.9462,2.9454,2.9445,2.9446,2.9437,2.9438,2.9433,2.9426,2.9426,2.9426,2.9426,0,2.9908,2.9885,2.9841,2.9823,2.9796,2.9764,2.9737,2.9712,2.968,2.9655,2.9628,2.9604,2.9562,2.9533,2.9506,2.9472,2.9463,2.9447,2.944,2.9449,2.9451,2.9435,2.9435,2.9425,2.9425,2.9425,2.9425,0,2.9917,2.9887,2.9853,2.9809,2.9797,2.9779,2.9741,2.9721,2.9695,2.9663,2.9654,2.9613,2.9577,2.9541,2.9492,2.9474,2.9441,2.9432,2.9454,2.945,2.9443,2.9445,2.9427,2.9423,2.942,2.942,2.942,0,2.9913,2.9895,2.9851,2.9833,2.9813,2.9784,2.9763,2.9731,2.9709,2.9666,2.9651,2.9614,2.9583,2.9526,2.949,2.9453,2.9442,2.9439,2.9436,2.9446,2.9441,2.9443,2.944,2.9439,2.944,2.944,2.944,0,2.9909,2.9896,2.9868,2.9835,2.9811,2.9783,2.9753,2.974,2.9701,2.9678,2.9643,2.9619,2.957,2.9533,2.9492,2.9466,2.9446,2.9442,2.9437,2.9446,2.946,2.9452,2.9457,2.9442,2.9441,2.9441,2.9441,2.9441,2.9911,2.9895,2.9861,2.9831,2.9806,2.9779,2.9759,2.9731,2.9702,2.9662,2.9644,2.9608,2.957,2.9513,2.9488,2.9459,2.9453,2.9447,2.9445,2.9444,2.9446,2.9466,2.9451,2.9451,2.9451,2.945,2.945,0,2.9906,2.9884,2.9856,2.9817,2.9793,2.978,2.9746,2.9726,2.9696,2.9664,2.9635,2.9594,2.9558,2.952,2.9482,2.9465,2.9455,2.9456,2.9457,2.9451,2.9454,2.9461,2.9465,2.9465,2.9465,2.9465,2.9465,2.9465,2.99,2.9871,2.9854,2.9812,2.9788,2.9756,2.9738,2.9712,2.9687,2.9644,2.9615,2.9592,2.9557,2.9516,2.9482,2.9472,2.9458,2.9462,2.9449,2.9452,2.9451,2.945,2.9456,2.946,2.946,2.9448,2.9448,2.9448]}]]